sat.trackr.live / text

‹ back to catalog

STARLINK-1826

NORAD 46723 · 2020-073BF

PAYLOAD ACTIVE UNKNOWN

§ Identity

Operator
Country
US
Launch date
2020-10-18
Launch site
AFETR
Launch vehicle
Mass (kg)
RCS (m²)

Purposes: comms

External: N2YO · Heavens-Above · Gunter

§ Orbital elements

Epoch: 2026-08-05T04:55:44.203008Z

Period
88.18 min
Inclination
53.0218°
Eccentricity
0.0005766
Mean motion
16.32965134 rev/d
Perigee alt
180.8 km
Apogee alt
188.4 km
Semi-major
6,562.7 km
B*
7.5286e-4
RAAN
156.3619°
Arg perigee
245.3369°
Mean anomaly
114.7074°
Rev number
32,145

§ Raw data

STARLINK-18261 46723U 20073BF  26217.20537272  .04733989  12147-4  75286-3 0  99932 46723  53.0218 156.3619 0005766 245.3369 114.7074 16.32965134321459

JSON: /api/v1/satellites/46723 · /tle

For live sub-satellite position, see the globe view (requires WebGL).

§ Visibility from observer

Set your observer location to see the next 7 days of passes ≥ 10°. The values pass through the URL so the page stays shareable.

No JS? Fill the form by hand. The geolocation button needs JavaScript.